Location: Arboyeti
(42.1122°N, 44.6017°E)
Time: 20:44:50
(UTC+00:00)

Cosmos 1758 Rocket - Pass Details

Date: 19 April 2021
Orbit: 603 x 635 km, 82.5° (Epoch: 17 May)

Event Time Altitude Azimuth Distance (km) Brightness Sun altitude
Rises 16:25:41 0° 347° (NNW) 2,923 7.6 -7.5°
Reaches altitude 10° 16:27:57 10° 343° (NNW) 2,015 6.8 -7.9°
Maximum altitude 16:32:18 55° 266° (W) 766 4.4 -8.6°
Drops below altitude 10° 16:36:40 10° 189° (S) 2,011 6.0 -9.4°
Sets 16:38:55 0° 185° (S) 2,916 6.8 -9.8°
